User: anonymous   Login
Location: *
(50.5492°N, 7.7469°E)
Time: 16:45:02
(UTC+00:00)
Language:

STARLINK-44 - Orbit

View from above orbital plane
View from above orbital plane
View from above satellite
View from above satellite

Ground track
Ground track

The orbit data is extracted from the following two-line orbital elements,

1 44261U 19029AC  19341.58334491  .00020406  00000-0  11853-2 0  9995
2 44261  53.0014   5.2008 0001125 107.0261 323.0882 15.12101567 29919
Epoch (UTC): 07 December 2019 14:00:01
Eccentricity: 0.0001125
inclination: 53.0014°
perigee height: 529 km
apogee height: 530 km
right ascension of ascending node: 5.2008°
argument of perigee: 107.0261°
revolutions per day: 15.12101567
mean anomaly at epoch: 323.0882°
orbit number at epoch: 2991

The dashed part of the orbit path shows where the satellite is in the earth's shadow,  

DLR